{"data":{"norad_id":48464,"intl_designator":"2021-040AN","name":"STARLINK-2686","alt_names":[],"object_type":"PAYLOAD","status":"ACTIVE","operator":null,"country":"US","launch_date":"2021-05-09","launch_site_code":"AFETR","launch_vehicle":null,"mission":null,"orbit_class":"UNKNOWN","rcs_meters":null,"size_class":null,"mass_kg":null,"dimensions":null,"purposes":["comms"],"wikipedia_slug":null,"has_3d_model":false,"image_url":null,"decayed_at":null,"tle_current":{"epoch":"2026-05-24T20:04:54.262560Z","epoch_age_seconds":85046,"freshness":"FRESH","line1":"1 48464U 21040AN  26144.83673915  .00005070  00000+0  17492-3 0  9999","line2":"2 48464  53.1582 197.0242 0001150  88.3735 271.7399 15.31717654278160","mean_motion":15.31717654,"eccentricity":0.000115,"inclination_deg":53.1582,"raan_deg":197.0242,"arg_perigee_deg":88.3735,"mean_anomaly_deg":271.7399,"bstar":0.00017492,"rev_number":27816,"period_min":94.012104400541,"perigee_km":469.89975527318,"apogee_km":471.4749848783,"semimajor_km":6848.8243700757,"source":"CELESTRAK","updated_at":"2026-05-25T13:38:16.719703Z"}}}